Location: C�mpuri de-Sus
(45.9500°N, 22.5500°E)
Time: 10:52:14
(UTC+00:00)

Cosmos 2278 Rocket - Pass Details

Date: 31 May 2022
Orbit: 840 x 846 km, 71.0° (Epoch: 01 July)

Event Time Altitude Azimuth Distance (km) Brightness Sun altitude
Rises 22:26:38 0° 329° (NNW) 3,417 6.3 -22.0°
Reaches altitude 10° 22:29:08 10° 325° (NW) 2,477 5.4 -22.0°
Maximum altitude 22:34:38 53° 251° (WSW) 1,034 2.5 -22.0°
Enters shadow 22:35:52 44° 210° (SSW) 1,150 2.5 -22.0°
